Regional Weather Roundup
Issued by NWS

Home | Current Version | Previous Version | Graphics & Text | Print | Product List | Glossary On
Versions: 1 2 3 4 5 6 7 8 9 10 11 12 13 14 15 16 17 18 19 20 21 22 23 24 25 26 27 28 29 30 31 32 33 34 35 36 37 38 39 40 41 42 43 44 45 46 47 48 49 50
000
ASUS43 KIND 252309
RWRIN

WEATHER ROUNDUP FOR INDIANA
NATIONAL WEATHER SERVICE INDIANAPOLIS IN
700 PM EDT WED MAY 25 2016

NOTE: "FAIR" INDICATES FEW OR NO CLOUDS BELOW 12,000 FEET WITH NO
SIGNIFICANT WEATHER AND/OR OBSTRUCTIONS TO VISIBILITY.

* - STATION DOES NOT REPORT WEATHER SUCH AS PRECIPITATION OR FOG.

+ - STATION NOT QUALITY CONTROLLED BY THE NATIONAL WEATHER SERVICE.
    USE DATA WITH CAUTION...ESPECIALLY DEWPOINT AND RELATIVE
    HUMIDITY OBSERVATIONS.

INZ001>003-010>013-019-020-260000-
NORTHWEST INDIANA

CITY           SKY/WX    TMP DP  RH WIND       PRES   REMARKS
GARY /AIRPORT/ PTSUNNY   73  70  88 S14       29.91R
KNOX *+        PTSUNNY   82  45  26 S16       29.91F
LA PORTE +     MOSUNNY   86  57  37 S8        29.91F
MICHIGAN CITY+ PTSUNNY   82  57  42 S7        29.89F
MONTICELLO +   PTSUNNY   84  57  40 S14G22    29.92F
RENSSELAER +   SUNNY     82  59  44 S20G26    29.91F
VALPARAISO     RAIN      74  67  78 SW15G31   29.91F

$$

LMZ046-743>745-260000-
SOUTHERN LAKE MICHIGAN

STATION/POSITION TIME  TEMP    WIND        PRES    WAVE
                       AIR SEA DIR/SP/G            HT
                 (UTC) (F)     (DEG/KT/KT) (MB)    (FT)
BURNS HARBOR     2300   75     200/ 20     1012.9R
MICHIGAN CITY    2200   81     170/  5/  8   N/A
5NW MICH CITY    2300   68 61  100/  2/  4   N/A     1

$$

INZ004-005-014>016-021>024-260000-
NORTH CENTRAL INDIANA

CITY           SKY/WX    TMP DP  RH WIND       PRES   REMARKS
ELKHART        MOSUNNY   84  64  51 S8        29.93F
GOSHEN         MOSUNNY   84  56  38 S10       29.93F
LOGANSPORT +   MOSUNNY   82  59  44 S21       29.94F
PERU/GRISSOM   MOSUNNY   84  63  48 SW20      29.93F
ROCHESTER +    MOSUNNY   84  61  45 S13       29.94F
SOUTH BEND     CLOUDY    84  58  40 S15       29.92F
WARSAW +       MOSUNNY   84  59  42 S6        29.94S

$$

INZ006>009-017-018-025>027-260000-
NORTHEAST INDIANA

CITY           SKY/WX    TMP DP  RH WIND       PRES   REMARKS
ANGOLA *+      SUNNY     82  61  47 S10       29.96F
AUBURN +       SUNNY     82  55  39 CALM      29.96F
FORT WAYNE     PTSUNNY   83  58  42 S15       29.96F
HUNTINGTON +   MOSUNNY  N/A N/A N/A S6        29.95F

$$

INZ028-029-035-036-043>045-051>053-260000-
WEST CENTRAL INDIANA

CITY           SKY/WX    TMP DP  RH WIND       PRES   REMARKS
CRAWFORDSVL +  SUNNY     80  62  55 S17G24    29.96F
GREENCASTLE +  SUNNY     77  68  73 S10       29.99F
LAFAYETTE      MOSUNNY   81  62  52 SW10G21   29.92F
TERRE HAUTE    CLOUDY    76  64  66 S16       29.98F

$$

INZ030>032-037>040-046>048-054>057-064-065-260000-
CENTRAL INDIANA

CITY           SKY/WX    TMP DP  RH WIND       PRES   REMARKS
CP ATTERBURY + MOSUNNY   79  63  57 S14G21    30.01S
COLUMBUS       SUNNY     79  63  57 SW17      30.01F
FISHERS *+     MOSUNNY   81  66  61 SW9       29.96
FRANKFORT +      N/A     83  48  29 SW17      29.96F
GREENWOOD *+   SUNNY     82  61  47 S13       29.99F
INDIANAPOLIS   PTSUNNY   79  64  60 SW17      29.96F
-EAGLE CREEK   MOSUNNY   82  62  50 S9G18     29.96F
KOKOMO *+      MOSUNNY   82  63  51 S16       29.95F
MARION +       PTSUNNY   83  59  43 SW14      29.97F HAZE
SHELBYVILLE    MOSUNNY   83  60  45 S17       29.98F
ZIONSVILLE +   SUNNY     81  62  52 SW13G22   29.97F

$$

INZ033-034-041-042-049-050-058-059-260000-
EAST CENTRAL INDIANA

CITY           SKY/WX    TMP DP  RH WIND       PRES   REMARKS
MUNCIE         MOSUNNY   85  59  41 S13G21    29.97F

$$

INZ060-061-067>069-081>083-085>088-260000-
SOUTHWEST INDIANA

CITY           SKY/WX    TMP DP  RH WIND       PRES   REMARKS
EVANSVILLE     CLOUDY    73  65  75 S13G20    30.00F
HUNTINGBURG *+ CLOUDY    73  63  68 S13G18    30.02F
WASHINGTON +   CLOUDY    75  65  71 S12       30.00F

$$

INZ062-063-066-070>080-084-089>092-260000-
SOUTH CENTRAL AND SOUTHEAST INDIANA

CITY           SKY/WX    TMP DP  RH WIND       PRES   REMARKS
BEDFORD +      MOSUNNY   79  72  78 S7        30.01F
BLOOMINGTON    CLOUDY    78  62  57 S18       30.01F
MADISON *+     PTSUNNY   81  63  54 S8        30.06F
NORTH VERNON + PTSUNNY   81  70  69 CALM      30.03F
SEYMOUR +      CLOUDY    81  64  57 S12       30.01F

$$




USA.gov is the U.S. government's official web portal to all federal, state and local government web resources and services.